This is the latest recevied weather packets stored in our database for station/object KC4JES. If no packets are shown the sender has not sent any weather packets the latest 10 day(s).
| Time | Temp. | Humidity | Pressure | Rain* | Wind** | Luminosity | Snow |
|---|---|---|---|---|---|---|---|
| 1778158117 | 24.44° C | 73% | 1015.1 hPa | 0 mm | - | 69 W/m² | - |
| 1778157812 | 23.89° C | 74% | 1015.1 hPa | 0 mm | - | 77 W/m² | - |
| 1778157511 | 23.89° C | 76% | 1015.1 hPa | 0 mm | - | 74 W/m² | - |
| 1778157208 | 23.33° C | 76% | 1015.4 hPa | 0 mm | - | 52 W/m² | - |
| 1778156904 | 23.33° C | 77% | 1015.3 hPa | 0 mm | - | 51 W/m² | - |
| 1778156599 | 22.78° C | 77% | 1015.3 hPa | 0 mm | - | 53 W/m² | - |
| 1778156296 | 22.78° C | 77% | 1015.3 hPa | 0 mm | - | 49 W/m² | - |
| 1778155992 | 22.78° C | 76% | 1015.5 hPa | 0 mm | - | 50 W/m² | - |
| 1778155688 | 22.78° C | 76% | 1015.1 hPa | 0 mm | - | 52 W/m² | - |
| 1778155385 | 22.78° C | 77% | 1015.5 hPa | 0 mm | - | 54 W/m² | - |
| 1778155081 | 22.22° C | 78% | 1015.4 hPa | 0 mm | - | 56 W/m² | - |
| 1778154777 | 22.22° C | 79% | 1015.4 hPa | 0 mm | - | 52 W/m² | - |
| 1778154473 | 22.22° C | 79% | 1015.5 hPa | 0 mm | - | 45 W/m² | - |
| 1778154171 | 21.67° C | 79% | 1015.6 hPa | 0 mm | - | 42 W/m² | - |
| 1778153868 | 21.67° C | 80% | 1015.7 hPa | 0 mm | - | 37 W/m² | - |
| 1778153564 | 21.67° C | 81% | 1015.7 hPa | 0 mm | - | 34 W/m² | - |
| 1778153262 | 21.11° C | 82% | 1015.7 hPa | 0 mm | - | 31 W/m² | - |
| 1778152959 | 21.11° C | 83% | 1015.5 hPa | 0 mm | - | 27 W/m² | - |
| 1778152657 | 20.56° C | 84% | 1015.5 hPa | 0 mm | - | 24 W/m² | - |
| 1778152353 | 20.56° C | 86% | 1015.3 hPa | 0 mm | - | 18 W/m² | - |
| 1778152049 | 20.56° C | 88% | 1015.2 hPa | 0 mm | - | 11 W/m² | - |
| 1778151746 | 20.56° C | 88% | 1015.3 hPa | 0 mm | - | 7 W/m² | - |
| 1778151443 | 20.56° C | 88% | 1015.3 hPa | 0 mm | - | 5 W/m² | - |
| 1778151139 | 20.56° C | 87% | 1015.4 hPa | 0 mm | - | 4 W/m² | - |
| 1778150836 | 20.56° C | 87% | 1015.3 hPa | 0 mm | - | 2 W/m² | - |
* Rain latest hour (hover to see other rain measurements)
** Current wind speed in m/s (hover to see current wind gust speed)